Location: Hains Lake
(37.8540°N, 99.8578°W)
Time: 00:22:15
(UTC+00:00)

Meteor 2-4 Rocket - Pass Details

Date: 11 December 2019
Orbit: 798 x 909 km, 81.2° (Epoch: 19 January)

Event Time Altitude Azimuth Distance (km) Brightness Sun altitude
Rises 12:48:16 0° 349° (N) 3,381 6.5 -11.0°
Reaches altitude 10° 12:50:42 10° 348° (NNW) 2,428 5.8 -10.5°
Maximum altitude 12:56:10 76° 263° (W) 837 3.6 -9.5°
Drops below altitude 10° 13:01:29 10° 179° (S) 2,367 6.4 -8.5°
Sets 13:03:50 0° 177° (S) 3,289 7.1 -8.1°
